Location: Englefontaine
(50.1909°N, 3.6440°E)
Time: 12:05:54
(UTC+00:00)

Daily predictions for brighter satellites

Satellite Brightness Start Highest point End
(mag) Time Altitude Azimuth Time Altitude Azimuth Time Altitude Azimuth
Cosmos 2322 3.8 18:26:46 10° S 18:32:16 57° ESE 18:37:49 10° NE
Cosmos 1066 Rocket 4.3 18:27:17 10° N 18:33:11 70° ENE 18:38:58 10° SSE
Cosmos 2233 Rocket 4.0 18:27:35 10° S 18:33:42 77° E 18:39:54 10° NNE
Cosmos 1726 1.3 18:33:31 10° S 18:36:17 66° E 18:39:04 10° NNE
Resurs 1-3 3.6 18:32:48 10° SSE 18:37:06 71° ENE 18:41:27 10° N
SAR-Lupe-2 3.6 18:41:29 10° SSE 18:45:03 86° WSW 18:48:40 10° NNW
Cosmos 1315 Rocket 4.2 18:43:17 10° NNE 18:46:18 20° ENE 18:49:14 10° ESE
Meteor PRIRODA 3.3 18:46:32 10° SSE 18:49:50 76° ENE 18:53:07 10° N
ATLAS 2AS CENTAUR R/B 4.2 18:43:39 10° W 18:50:12 36° NNW 18:56:32 10° NE
Cosmos 1125 Rocket 4.0 18:45:16 10° NNW 18:50:13 43° ENE 18:55:10 10° SE
Cosmos 1842 3.2 18:48:07 10° N 18:51:42 54° ENE 18:55:14 10° SSE
USA 59 Rocket 0.4 18:49:36 10° NW 18:53:21 66° SW 18:58:30 10° SSE
Cosmos 1536 3.5 18:51:13 10° SSE 18:54:31 29° E 18:57:52 10° NNE
Okean 3 Rocket 4.2 18:50:56 10° SSE 18:54:59 35° E 18:59:02 10° NNE
Cosmos 1707 2.7 18:52:03 10° N 18:55:31 49° ENE 18:58:57 10° SSE
Cosmos 1515 Rocket 4.0 18:51:35 10° N 18:55:43 41° ENE 18:59:50 10° SE
Cosmos 2061 Rocket 4.4 18:49:23 10° SSW 18:55:49 74° W 19:02:17 10° N
COSMOS 2428 2.7 18:50:24 10° SSW 18:56:03 71° ESE 19:01:47 10° NNE
Cosmos 1818 3.9 18:55:46 10° SW 19:01:14 74° NW 19:06:45 10° NE
Okean O Rocket 2.5 18:57:42 11° SE 19:01:31 32° ENE 19:05:27 10° N
Cosmos 2278 Rocket 2.2 19:00:34 10° NNW 19:06:17 85° ENE 19:11:57 10° SSE
USA 306 2.2 19:04:50 10° WSW 19:07:57 89° SE 19:11:32 10° ENE
CZ-4B DEB 4.3 19:03:51 10° SSE 19:09:22 81° WSW 19:14:54 10° NNW
CZ-4 R/B 1.3 19:06:32 10° SSE 19:10:21 87° WSW 19:14:17 10° NNW
NOSS 2-1 (C) 4.5 19:10:03 10° NW 19:13:42 44° SW 19:18:35 10° SSE
CZ-4B R/B 3.2 19:08:26 10° SSE 19:13:51 68° ENE 19:19:11 10° N
Cosmos 1766 Rocket 3.6 19:10:14 10° S 19:14:34 84° W 19:19:01 10° N
Meteor 2-17 Rocket 4.4 19:09:32 10° N 19:15:38 83° E 19:21:43 10° SSE
Resurs 01 Rocket 1.6 19:11:30 10° SSE 19:15:54 73° ENE 19:20:20 10° N
Helios 1A 2.8 19:12:11 10° NNE 19:16:17 86° ESE 19:20:20 10° SSW
USA 290 2.8 19:13:27 10° NNW 19:16:42 58° WSW 19:19:56 10° S
Meteor 2-10 4.4 19:12:27 10° SSE 19:17:46 47° E 19:23:15 10° NNE
ADEOS 4.3 19:13:29 10° S 19:18:36 56° W 19:23:45 10° NNW
GEOS 3 Rocket 3.9 19:13:49 10° SSE 19:19:01 69° SW 19:24:12 10° NW
USA 186 1.7 19:17:59 10° SSE 19:21:12 88° ENE 19:24:27 10° NNW
CZ-4B R/B 4.3 19:16:51 10° S 19:21:27 49° W 19:26:09 10° NNW
Cosmos 1814 Rocket 4.1 19:17:06 10° SSW 19:22:24 83° WNW 19:27:40 10° NNE
PAYLOAD B 4.4 19:16:53 10° SSE 19:22:29 82° WSW 19:28:09 10° NNW
KORONAS-FOTON 4.2 19:18:54 10° NNW 19:22:33 60° W 19:26:11 10° S
Cosmos 2360 Rocket 4.4 19:18:01 10° W 19:22:47 27° NW 19:27:34 10° NNE
MOS 1-B 4.4 19:18:00 10° SSE 19:23:44 66° ENE 19:29:29 10° NNW
SPOT 5 3.6 19:22:14 20° ESE 19:24:32 31° ENE 19:28:26 10° N
Okean-O 3.4 19:23:04 21° ESE 19:25:17 33° ENE 19:29:14 10° N
USA 267 3.9 19:21:15 10° ENE 19:27:29 50° N 19:33:45 10° WNW
Cosmos 1408 Rocket 3.8 19:24:31 10° SSE 19:28:41 45° E 19:32:54 10° NNE
ISS -3.2 19:26:36 10° SW 19:29:44 39° SSE 19:30:43 31° ESE
NOSS 3-3 (A) 4.3 19:25:27 10° S 19:30:16 35° ESE 19:35:47 10° NE
CZ-4B R/B 3.5 19:26:40 10° S 19:30:28 55° W 19:34:30 10° NNW
Kosmos-1783 4.1 19:30:35 10° WSW 19:32:23 25° NW 19:33:11 17° N
SL-08 R/B 4.1 19:27:57 10° N 19:32:48 58° WNW 19:37:37 10° SSW
Cosmos 2237 Rocket 2.2 19:29:34 10° S 19:35:05 60° ESE 19:40:37 10° NE
CSL-04 Rocket 3.6 19:32:17 10° SSE 19:37:39 89° WSW 19:43:00 10° NNW
Aureole 3 Rocket 4.0 19:31:25 10° SSE 19:37:46 45° E 19:42:24 10° NNE
Cosmos 2219 Rocket 4.0 19:34:54 10° WSW 19:40:02 34° NW 19:45:10 10° NNE
Cosmos 1356 Rocket 4.2 19:38:28 10° NNW 19:42:34 52° W 19:46:36 10° S
Lacrosse 4 Rocket 4.3 19:42:08 10° WNW 19:44:16 13° WSW 19:46:23 10° SW
IKONOS-2 4.4 19:41:59 10° NNE 19:46:06 59° ESE 19:50:11 10° S
Meteor 1-11 Rocket 3.6 19:41:12 10° S 19:46:47 73° E 19:52:19 10° NNE
MOS 1 Rocket 4.0 19:45:38 28° ESE 19:47:47 42° ENE 19:52:47 10° N
CARTOSAT-1 4.3 19:46:51 10° S 19:50:59 51° W 19:55:10 10° NNW
Cosmos 158 Rocket 3.7 19:47:11 10° S 19:52:00 64° ESE 19:56:50 10° NNE
ATLAS CENTAUR R/B 1.0 19:48:31 10° SSW 19:52:01 58° SE 19:54:53 16° NE
NOSS 3-4 (A) 4.2 19:46:38 10° NW 19:53:01 51° NE 19:57:11 25° E
NOSS 3-4 (C) 4.2 19:46:45 10° NW 19:53:08 51° NE 19:57:18 25° E
Cosmos 1805 Rocket 3.6 19:52:47 28° SSE 19:54:48 53° E 19:59:02 10° NNE
Cosmos 1428 Rocket 4.4 19:51:37 10° N 19:57:45 80° E 20:02:18 19° SSE
Cosmos 1733 3.5 19:55:44 10° SSW 19:59:07 57° WNW 20:02:32 10° N
USA 276 3.7 19:58:40 10° W 20:00:38 21° SW 20:00:38 21° SW
Cosmos 2369 Rocket 2.9 19:57:54 10° NNW 20:03:16 39° NE 20:05:12 30° E
SL-24 R/B 4.4 20:01:56 35° SE 20:03:51 59° E 20:08:35 10° N
Cosmos 1980 3.7 19:58:56 10° SSW 20:04:37 83° WNW 20:10:22 10° NNE
Cosmos 1862 Rocket 4.4 20:02:29 10° N 20:06:31 33° ENE 20:06:32 33° ENE
Meteor 1-21 4.3 20:02:19 10° N 20:08:02 63° ENE 20:10:23 36° SE
Sich 1 2.8 20:07:33 25° S 20:09:58 82° E 20:14:18 10° NNE
Cosmos 1943 Rocket 2.9 20:04:58 10° NW 20:10:16 49° WSW 20:14:05 18° S
Cosmos 1707 Rocket 4.1 20:06:44 10° N 20:10:58 40° ENE 20:11:05 40° ENE
DELTA 2 DEB (DPAF) 4.0 20:07:39 10° NNE 20:11:46 54° ESE 20:11:47 54° ESE
NOSS 0 Rocket 4.4 20:07:05 10° SW 20:13:16 62° NW 20:19:30 10° NNE
Cosmos 2298 Rocket 4.0 20:08:51 10° NNW 20:14:10 82° WSW 20:16:27 35° SSE
Terra 2.1 20:13:52 43° E 20:14:30 46° ENE 20:19:01 10° N
ACS3 Solar Sail 2.1 20:09:35 14° S 20:15:14 71° W 20:21:40 10° NNW
Cosmos 2195 Rocket 4.4 20:09:06 10° N 20:15:15 87° W 20:19:12 24° S
ERS-1 Rocket 3.1 20:14:03 44° ESE 20:15:15 56° ENE 20:20:11 10° N
Cosmos 2150 Rocket 4.0 20:10:41 10° NNW 20:15:52 79° WSW 20:17:56 37° SSE
USA 32 4.0 20:11:11 10° N 20:16:28 83° W 20:19:24 27° S
Cosmos 1570 Rocket 4.2 20:12:02 10° SSW 20:17:19 73° WNW 20:22:35 10° NNE
Cosmos 1975 3.2 20:18:58 47° NE 20:18:58 47° NE 20:22:04 10° NNE
Cosmos 1805 3.2 20:21:37 56° SW 20:22:15 74° W 20:25:56 10° N
Cosmos 1315 Rocket 3.9 20:18:48 10° NNW 20:22:34 42° W 20:24:27 24° SSW
Cosmos 2026 Rocket 3.9 20:16:20 10° N 20:22:37 90° W 20:25:51 30° S
Cosmos 1092 Rocket 4.0 20:16:43 10° N 20:23:05 89° ENE 20:26:28 30° S
Ariane Rocket 3.4 20:24:21 42° E 20:24:50 43° ENE 20:29:37 10° N
Meteor 2-12 Rocket 4.3 20:20:13 10° N 20:26:25 81° E 20:28:56 38° SSE
Cosmos 836 Rocket 4.5 20:22:30 10° SSW 20:27:48 87° WNW 20:33:08 10° NNE
IRS-1A Rocket 4.2 20:26:27 42° SSE 20:28:30 81° ENE 20:34:12 10° NNW
Okean 3 3.9 20:29:18 10° N 20:32:45 48° NE 20:32:45 48° NE
SL-16 R/B 2.2 20:35:16 55° ESE 20:35:29 56° ESE 20:41:02 10° NE
Okean O Rocket 3.1 20:35:02 18° SSW 20:37:43 33° W 20:41:45 10° NNW
Cosmos 1634 Rocket 3.9 20:36:32 33° S 20:39:36 80° E 20:45:58 10° NNE
SL-14 R/B 4.0 20:36:34 10° NNW 20:40:13 46° W 20:40:36 44° WSW
Cosmos 1656 Rocket 3.6 20:34:33 10° NNW 20:40:16 85° ENE 20:41:19 61° SE
USA 306 3.4 20:37:26 10° W 20:40:35 45° NNW 20:40:35 45° NNW
USA 59 Rocket 3.1 20:41:50 10° WSW 20:42:37 10° WSW 20:43:25 10° SW
ATLAS 2AS CENTAUR R/B 4.4 20:37:14 10° NW 20:43:05 27° N 20:48:44 10° ENE
IRS-1C Rocket 4.0 20:45:02 58° S 20:46:06 82° WSW 20:51:25 10° NNW
Okean 2 4.5 20:42:13 10° N 20:44:49 34° NNE 20:44:49 34° NNE
Cosmos 773 Rocket 3.9 20:45:39 37° SSW 20:47:50 90° ESE 20:53:10 10° NNE
Okean 1-7 4.0 20:45:40 10° N 20:48:39 36° NNE 20:48:39 36° NNE
Cosmos 2263 4.3 20:45:44 10° NNW 20:51:25 61° NE 20:51:55 58° E
Resurs 01 Rocket 4.4 20:50:21 10° WSW 20:52:50 15° W 20:55:21 10° NW
Cosmos 2228 Rocket 3.2 20:50:47 10° NNW 20:55:20 73° W 20:55:20 73° W
SPOT 3 Rocket 3.4 21:00:55 79° ENE 21:00:55 79° ENE 21:06:02 10° NNW
Okean-O 4.1 21:00:31 28° SW 21:01:38 32° W 21:05:37 10° NNW
SPOT 5 4.0 21:01:23 31° SW 21:02:30 35° W 21:06:36 10° NNW
Cosmos 2142 Rocket 4.3 21:02:36 68° ESE 21:02:53 70° E 21:09:01 10° NNE
ISS -0.9 21:03:04 10° W 21:03:42 15° W 21:03:42 15° W
NOSS 3-3 (C) 4.0 21:00:57 10° SW 21:06:28 71° NW 21:13:05 10° NE
USA 267 3.3 21:08:22 50° E 21:10:04 69° NNE 21:16:34 10° WNW
Cosmos 1655 Rocket 4.5 21:04:36 10° N 21:10:37 46° ENE 21:10:37 46° ENE
Cosmos 724 4.2 21:15:31 72° NE 21:15:31 72° NE 21:20:43 10° NE
Cosmos 2180 Rocket 4.4 21:17:01 76° ESE 21:17:14 77° E 21:23:37 10° NNE
Cosmos 2237 Rocket 3.9 21:14:33 10° WSW 21:19:30 31° NW 21:24:29 10° NNE
NOSS 3-3 (A) 4.4 21:15:16 10° WSW 21:20:45 58° NW 21:27:20 10° NE
Cosmos 2279 Rocket 4.0 21:20:00 60° SSW 21:21:10 77° W 21:27:26 10° N
Cosmos 1607 4.0 21:18:21 10° SW 21:24:49 80° NW 21:31:18 10° NE
Cosmos 2297 4.2 21:23:31 10° NW 21:28:57 50° WSW 21:28:59 50° WSW
ATLAS CENTAUR R/B 3.4 21:26:42 10° W 21:29:43 24° NNW 21:29:51 24° NNW
Spot 2 Rocket 4.2 21:31:06 48° W 21:31:06 48° W 21:35:48 10° NNW
NOSS 3-4 (A) 4.1 21:37:28 10° NW 21:44:08 55° SW 21:44:37 54° SW
NOSS 3-4 (C) 4.1 21:37:35 10° NW 21:44:15 56° SW 21:44:43 55° SW
Cosmos 2369 Rocket 3.0 21:41:58 10° NW 21:46:58 44° W 21:46:58 44° W
Terra 3.6 21:52:34 25° W 21:52:34 25° W 21:56:11 10° NW
ACS3 Solar Sail 4.3 21:57:15 10° WSW 22:00:25 14° W 22:03:36 10° NW
Ariane Rocket 4.5 22:04:29 30° W 22:04:29 30° W 22:08:22 10° NNW
SL-16 R/B 3.7 22:17:00 21° W 22:19:54 33° NW 22:25:01 10° NNE
ATLAS 2AS CENTAUR R/B 3.5 22:29:15 10° NW 22:35:48 42° NNE 22:36:31 41° NE
Cosmos 1943 4.4 22:41:44 39° N 22:41:44 39° N 22:45:28 10° NNE
USA 267 4.2 22:55:43 36° W 22:55:43 36° W 22:59:38 10° WNW
Cosmos 1697 Rocket 4.1 22:48:31 10° NNW 22:52:28 33° NNE 22:52:28 33° NNE
Cosmos 2344 3.9 23:19:24 10° NW 23:27:14 78° WSW 23:27:14 78° WSW
Cosmos 1980 Rocket 3.6 23:48:45 10° NNW 23:52:13 34° N 23:52:13 34° N
